Home > Weather > Braga > Past weeks

Flag for Portugal Weather for the Past 2 Weeks in Braga, Portugal

Now
58 °F

Cool.


Feels Like: 58 °F
Forecast: N/A
Wind: 5 mph from West

Location: Porto / Pedras Rubras

Current Time: Feb 11, 2016 at 3:26:25 PM

Latest Report: Feb 11, 2016 at 2:00 PM


Visibility: N/A

Pressure: 30.04 "Hg

Humidity: 81%

Dew point: 53 °F

Location of BragaLocation

Historic Weather in Braga — Graph

°F

Braga Temperature Yesterday

Maximum temperature yesterday: 58 °F (at 2:00 PM)
Minimum temperature yesterday: 56 °F (at 3:00 AM)
Average temperature yesterday: 57 °F

High & Low Weather Summary for the Past Weeks

 TemperatureHumidityPressure
High62 °F (Feb 4, 4:00 PM)94% (Feb 10, 8:00 AM)30.67 "Hg (Feb 10, 8:00 AM)
Low39 °F (Jan 29, 5:00 AM)31% (Feb 4, 4:00 PM)29.83 "Hg (Feb 6, 5:00 PM)
Average53 °F77%30.37 "Hg
* Reported Jan 27 1:00 PM — Feb 11 1:00 PM, Braga, Weather by CustomWeather, © 2016

Note: Actual official high and low records may vary slightly from our data, if they occured in-between our weather recording intervals... More about our weather records

Advertising

Braga Weather History for the Previous 24 Hours

 ConditionsComfort  
Time TempWeatherWind HumidityBarometerVisibility
1:00 PM
Thu, Feb 11
58 °FCool.5 mph83%30.06 "HgN/A
12:00 PM59 °FCool.6 mph85%30.05 "HgN/A
11:00 AM58 °FCool.5 mph89%30.04 "HgN/A
10:00 AM57 °FCool.5 mph91%30.02 "HgN/A
9:00 AM57 °FCool.6 mph90%30.01 "HgN/A
8:00 AM57 °FCool.6 mph91%29.99 "HgN/A
7:00 AM57 °FCool.6 mph94%29.98 "HgN/A
6:00 AM57 °FCool.5 mph94%29.96 "HgN/A
3:00 AM57 °FCool.6 mph93%29.97 "HgN/A
1:00 AM57 °FCool.5 mph93%30.00 "HgN/A
12:00 AM57 °FCool.5 mph92%30.01 "HgN/A
11:00 PM
Wed, Feb 10
57 °FCool.3 mph91%30.02 "HgN/A
9:00 PM57 °FCool.3 mph90%30.03 "HgN/A
8:00 PM57 °FCool.3 mph91%30.04 "HgN/A
7:00 PM57 °FCool.5 mph91%30.04 "HgN/A
6:00 PM56 °FCool.6 mph91%30.04 "HgN/A
5:00 PM57 °FCool.6 mph91%30.03 "HgN/A
4:00 PM58 °FCool.6 mph88%30.04 "HgN/A
3:00 PM58 °FCool.5 mph89%30.03 "HgN/A
Weather by CustomWeather, © 2016

See weather overviewHow to use our weather pages